Location: Beetenbrück
(52.8113°N, 9.5946°E)
Time: 22:34:50
(UTC+00:00)

Cosmos 304 Rocket - Pass Details

Date: 14 April 2026
Orbit: 668 x 676 km, 74.0° (Epoch: 12 May)

Event Time Altitude Azimuth Distance (km) Brightness Sun altitude
Rises 22:43:57 0° 333° (NNW) 3,033 8.3 -27.0°
Reaches altitude 10° 22:46:15 10° 332° (NNW) 2,116 7.2 -27.0°
Enters shadow 22:50:18 62° 310° (NW) 760 4.0 -27.1°
